Home > Weather > Reims > Past weeks

Flag for France Past Weather in Reims, Champagne-Ardenne, France — Yesterday and Last 2 Weeks

Now
57 °F

Clear.


Feels Like: 56 °F
Forecast: 51 / 66 °F
Wind: 7 mph from West

Location: Chalons-Vatry

Current Time: Jun 27, 2016 at 12:48:41 AM

Latest Report: Jun 27, 2016 at 12:00 AM


Visibility: N/A

Pressure: 30.15 "Hg

Humidity: 82%

Dew Point: 52 °F

Location of ReimsLocation

Past Weather in Reims — Graph

°F

Reims Temperature Yesterday

Maximum temperature yesterday: 68 °F (at 1:30 PM)
Minimum temperature yesterday: 46 °F (at 6:00 AM)
Average temperature yesterday: 59 °F

High & Low Weather Summary for the Past Weeks

 TemperatureHumidityPressure
High90 °F (Jun 23, 4:00 PM)100% (Jun 12, 12:30 AM)30.30 "Hg (Jun 12, 12:30 AM)
Low46 °F (Jun 26, 6:00 AM)46% (Jun 23, 4:30 PM)29.50 "Hg (Jun 15, 4:30 AM)
Average62 °F85%29.94 "Hg
* Reported Jun 12 12:00 AM — Jun 27 12:00 AM, Reims, Weather by CustomWeather, © 2016

Note: Actual official high and low records may vary slightly from our data, if they occured in-between our weather recording intervals... More about our weather records

Advertising

Reims Weather History for the Previous 24 Hours

Scroll right to see more
 ConditionsComfort  
Time TempWeatherWind HumidityBarometerVisibility
12:00 AM
Mon, Jun 27
57 °FClear.7 mph82%30.15 "HgN/A
11:30 PM
Sun, Jun 26
55 °FSunny.6 mph88%30.15 "HgN/A
11:00 PM55 °FSunny.3 mph94%30.15 "HgN/A
10:30 PM57 °FSunny.3 mph94%30.15 "HgN/A
10:00 PM57 °FSunny.5 mph88%30.15 "HgN/A
9:30 PM59 °FCloudy.9 mph94%30.15 "HgN/A
9:00 PM61 °FCool.3 mph83%30.12 "HgN/A
8:30 PM61 °FPartly sunny.2 mph83%30.12 "HgN/A
8:00 PM61 °FSunny.3 mph83%30.12 "HgN/A
7:30 PM63 °FMild.7 mph73%30.12 "HgN/A
7:00 PM63 °FSunny.8 mph73%30.12 "HgN/A
6:30 PM63 °FBroken clouds.8 mph73%30.12 "HgN/A
6:00 PM59 °FBroken clouds.9 mph82%30.15 "HgN/A
5:30 PM59 °FBroken clouds.20 mph82%30.15 "HgN/A
5:00 PM64 °FPartly sunny.12 mph64%30.12 "HgN/A
4:30 PM66 °FPartly sunny.12 mph60%30.12 "HgN/A
4:00 PM66 °FBroken clouds.10 mph60%30.09 "HgN/A
3:30 PM68 °FPartly sunny.9 mph56%30.12 "HgN/A
3:00 PM66 °FBroken clouds.13 mph60%30.09 "HgN/A
2:30 PM64 °FPartly sunny.9 mph64%30.12 "HgN/A
2:00 PM64 °FBroken clouds.15 mph68%30.12 "HgN/A
1:30 PM68 °FPartly sunny.14 mph56%30.12 "HgN/A
1:00 PM66 °FBroken clouds.13 mph64%30.12 "HgN/A
12:30 PM66 °FPartly sunny.13 mph60%30.12 "HgN/A
12:00 PM63 °FBroken clouds.10 mph68%30.12 "HgN/A
11:30 AM64 °FBroken clouds.12 mph64%30.12 "HgN/A
11:00 AM63 °FBroken clouds.10 mph68%30.12 "HgN/A
10:30 AM61 °FPartly sunny.9 mph72%30.12 "HgN/A
10:00 AM61 °FScattered clouds.10 mph77%30.12 "HgN/A
9:30 AM61 °FPassing clouds.8 mph77%30.12 "HgN/A
9:00 AM59 °FSunny.7 mph82%30.12 "HgN/A
8:30 AM57 °FSunny.6 mph88%30.12 "HgN/A
8:00 AM55 °FSunny.5 mph94%30.12 "HgN/A
7:30 AM54 °FClear.5 mph94%30.12 "HgN/A
7:00 AM50 °FClear.5 mph94%30.12 "HgN/A
6:30 AM48 °FClear.6 mph100%30.12 "HgN/A
6:00 AM46 °FClear.5 mph100%30.09 "HgN/A
5:30 AM48 °FClear.6 mph94%30.12 "HgN/A
5:00 AM50 °FClear.7 mph88%30.09 "HgN/A
4:30 AM52 °FClear.7 mph88%30.09 "HgN/A
4:00 AM50 °FClear.6 mph94%30.09 "HgN/A
3:30 AM52 °FClear.5 mph88%30.09 "HgN/A
3:00 AM54 °FClear.7 mph88%30.09 "HgN/A
2:30 AM54 °FClear.5 mph88%30.09 "HgN/A
2:00 AM55 °FClear.6 mph88%30.12 "HgN/A
1:30 AM57 °FClear.5 mph77%30.09 "HgN/A
1:00 AM57 °FClear.6 mph77%30.09 "HgN/A
12:30 AM55 °FClear.3 mph88%30.09 "HgN/A
12:00 AM55 °FClear.6 mph88%30.09 "HgN/A
Weather by CustomWeather, © 2016

See weather overviewHow to use our weather pages